TimeEDT,TemperatureF,Dew PointF,Humidity,Sea Level PressureIn,VisibilityMPH,Wind Direction,Wind SpeedMPH,Gust SpeedMPH,PrecipitationIn,Events,Conditions,WindDirDegrees,DateUTC
12:15 AM,68.0,68.0,100,29.97,10.0,North,-9999.0,-,N/A,,Clear,0,2013-06-27 04:15:00
12:35 AM,68.0,68.0,100,29.97,10.0,North,-9999.0,-,N/A,,Clear,0,2013-06-27 04:35:00
12:55 AM,68.0,68.0,100,29.96,10.0,North,-9999.0,-,N/A,,Clear,0,2013-06-27 04:55:00
1:15 AM,68.0,68.0,100,29.97,9.0,North,-9999.0,-,N/A,,Clear,0,2013-06-27 05:15:00
1:35 AM,68.0,68.0,100,29.96,8.0,North,-9999.0,-,N/A,,Partly Cloudy,0,2013-06-27 05:35:00
1:55 AM,68.0,68.0,100,29.95,10.0,North,-9999.0,-,N/A,,Partly Cloudy,0,2013-06-27 05:55:00
2:15 AM,68.0,68.0,100,29.95,10.0,North,-9999.0,-,N/A,,Clear,0,2013-06-27 06:15:00
2:35 AM,68.0,68.0,100,29.94,10.0,North,-9999.0,-,N/A,,Clear,0,2013-06-27 06:35:00
2:55 AM,68.0,68.0,100,29.93,10.0,North,-9999.0,-,N/A,,Clear,0,2013-06-27 06:55:00
3:15 AM,68.0,68.0,100,29.93,9.0,North,-9999.0,-,N/A,,Clear,0,2013-06-27 07:15:00
3:35 AM,68.0,68.0,100,29.92,9.0,North,-9999.0,-,N/A,,Clear,0,2013-06-27 07:35:00
3:55 AM,68.0,68.0,100,29.91,8.0,North,-9999.0,-,N/A,,Clear,0,2013-06-27 07:55:00
4:15 AM,68.0,68.0,100,29.90,7.0,North,-9999.0,-,N/A,,Clear,0,2013-06-27 08:15:00
4:35 AM,69.8,69.8,100,29.89,7.0,North,-9999.0,-,N/A,,Clear,0,2013-06-27 08:35:00
4:55 AM,69.8,69.8,100,29.89,8.0,North,-9999.0,-,N/A,,Clear,0,2013-06-27 08:55:00
5:15 AM,69.8,69.8,100,29.89,8.0,North,-9999.0,-,N/A,,Clear,0,2013-06-27 09:15:00
5:35 AM,69.8,69.8,100,29.89,8.0,North,-9999.0,-,N/A,,Clear,0,2013-06-27 09:35:00
5:55 AM,69.8,69.8,100,29.90,8.0,North,-9999.0,-,N/A,,Clear,0,2013-06-27 09:55:00
6:15 AM,69.8,69.8,100,29.90,6.0,North,-9999.0,-,N/A,,Clear,0,2013-06-27 10:15:00
6:35 AM,69.8,69.8,100,29.90,6.0,North,-9999.0,-,N/A,,Clear,0,2013-06-27 10:35:00
6:55 AM,69.8,69.8,100,29.90,6.0,North,-9999.0,-,N/A,,Clear,0,2013-06-27 10:55:00
7:15 AM,71.6,71.6,100,29.90,6.0,North,-9999.0,-,N/A,,Clear,0,2013-06-27 11:15:00
7:35 AM,71.6,71.6,100,29.90,8.0,North,-9999.0,-,N/A,,Clear,0,2013-06-27 11:35:00
7:55 AM,73.4,71.6,94,29.90,8.0,North,-9999.0,-,N/A,,Clear,0,2013-06-27 11:55:00
8:15 AM,73.4,73.4,100,29.90,9.0,North,-9999.0,-,N/A,,Clear,0,2013-06-27 12:15:00
8:35 AM,75.2,73.4,94,29.90,10.0,North,-9999.0,-,N/A,,Clear,0,2013-06-27 12:35:00
8:55 AM,77.0,73.4,89,29.89,10.0,North,-9999.0,-,N/A,,Clear,0,2013-06-27 12:55:00
9:15 AM,77.0,73.4,89,29.88,10.0,North,-9999.0,-,N/A,,Clear,0,2013-06-27 13:15:00
9:35 AM,80.6,73.4,79,29.87,10.0,North,-9999.0,-,N/A,,Clear,0,2013-06-27 13:35:00
9:55 AM,82.4,75.2,79,29.87,10.0,North,-9999.0,-,N/A,,Clear,0,2013-06-27 13:55:00
10:15 AM,82.4,75.2,79,29.86,10.0,North,-9999.0,-,N/A,,Clear,0,2013-06-27 14:15:00
10:35 AM,84.2,75.2,74,29.86,10.0,North,-9999.0,-,N/A,,Clear,0,2013-06-27 14:35:00
10:55 AM,84.2,75.2,74,29.86,10.0,North,-9999.0,-,N/A,,Clear,0,2013-06-27 14:55:00
11:15 AM,86.0,75.2,70,29.86,10.0,North,-9999.0,-,N/A,,Clear,0,2013-06-27 15:15:00
11:35 AM,86.0,75.2,70,29.86,10.0,North,-9999.0,-,N/A,,Clear,0,2013-06-27 15:35:00
11:55 AM,86.0,73.4,66,29.86,10.0,North,-9999.0,-,N/A,,Clear,0,2013-06-27 15:55:00
12:15 PM,87.8,75.2,66,29.86,10.0,North,-9999.0,-,N/A,,Scattered Clouds,0,2013-06-27 16:15:00
12:35 PM,87.8,73.4,62,29.85,10.0,North,-9999.0,-,N/A,,Mostly Cloudy,0,2013-06-27 16:35:00
12:55 PM,87.8,73.4,62,29.85,10.0,North,-9999.0,-,N/A,,Scattered Clouds,0,2013-06-27 16:55:00
1:15 PM,89.6,71.6,55,29.85,10.0,North,-9999.0,-,N/A,,Clear,0,2013-06-27 17:15:00
1:35 PM,89.6,69.8,52,29.84,10.0,North,-9999.0,-,N/A,,Clear,0,2013-06-27 17:35:00
1:55 PM,89.6,69.8,52,29.83,10.0,North,-9999.0,-,N/A,,Clear,0,2013-06-27 17:55:00
2:15 PM,89.6,69.8,52,29.82,10.0,North,-9999.0,-,N/A,,Clear,0,2013-06-27 18:15:00
2:35 PM,89.6,71.6,55,29.82,10.0,North,-9999.0,-,N/A,,Partly Cloudy,0,2013-06-27 18:35:00
2:55 PM,89.6,69.8,52,29.80,10.0,North,-9999.0,-,N/A,,Partly Cloudy,0,2013-06-27 18:55:00
3:15 PM,89.6,71.6,55,29.79,10.0,North,-9999.0,-,N/A,Thunderstorm,Partly Cloudy,0,2013-06-27 19:15:00
3:35 PM,89.6,71.6,55,29.78,10.0,North,-9999.0,-,N/A,,Clear,0,2013-06-27 19:35:00
3:55 PM,89.6,71.6,55,29.78,10.0,North,-9999.0,-,N/A,,Clear,0,2013-06-27 19:55:00
4:15 PM,89.6,71.6,55,29.77,10.0,North,-9999.0,-,N/A,,Clear,0,2013-06-27 20:15:00
4:35 PM,89.6,69.8,52,29.78,10.0,North,-9999.0,-,N/A,,Partly Cloudy,0,2013-06-27 20:35:00
4:55 PM,87.8,69.8,55,29.77,10.0,North,-9999.0,-,N/A,Thunderstorm,Clear,0,2013-06-27 20:55:00
5:15 PM,89.6,71.6,55,29.76,10.0,North,-9999.0,-,N/A,Thunderstorm,Clear,0,2013-06-27 21:15:00
5:35 PM,89.6,69.8,52,29.75,10.0,North,-9999.0,-,N/A,Thunderstorm,Clear,0,2013-06-27 21:35:00
5:55 PM,87.8,71.6,58,29.76,10.0,North,-9999.0,-,N/A,,Clear,0,2013-06-27 21:55:00
6:15 PM,86.0,71.6,62,29.74,10.0,North,-9999.0,-,N/A,Thunderstorm,Clear,0,2013-06-27 22:15:00
6:35 PM,78.8,73.4,83,29.76,8.0,North,-9999.0,-,N/A,Rain-Thunderstorm,Light Rain,0,2013-06-27 22:35:00
6:55 PM,77.0,69.8,78,29.76,10.0,North,-9999.0,-,N/A,Thunderstorm,Clear,0,2013-06-27 22:55:00
7:15 PM,77.0,71.6,83,29.78,10.0,North,-9999.0,-,N/A,Thunderstorm,Clear,0,2013-06-27 23:15:00
7:35 PM,77.0,71.6,83,29.78,10.0,North,-9999.0,-,N/A,,Clear,0,2013-06-27 23:35:00
7:55 PM,77.0,71.6,83,29.78,10.0,North,-9999.0,-,N/A,,Clear,0,2013-06-27 23:55:00
8:15 PM,77.0,71.6,83,29.78,10.0,North,-9999.0,-,N/A,,Clear,0,2013-06-28 00:15:00
8:35 PM,77.0,71.6,83,29.78,10.0,North,-9999.0,-,N/A,,Clear,0,2013-06-28 00:35:00
8:55 PM,77.0,71.6,83,29.79,10.0,North,-9999.0,-,N/A,,Clear,0,2013-06-28 00:55:00
9:15 PM,77.0,71.6,83,29.77,10.0,North,-9999.0,-,N/A,Thunderstorm,Clear,0,2013-06-28 01:15:00
9:35 PM,75.2,71.6,89,29.79,10.0,North,-9999.0,-,N/A,Thunderstorm,Clear,0,2013-06-28 01:35:00
9:55 PM,75.2,71.6,89,29.78,10.0,North,-9999.0,-,N/A,Thunderstorm,Clear,0,2013-06-28 01:55:00
10:15 PM,75.2,71.6,89,29.79,10.0,North,-9999.0,-,N/A,Thunderstorm,Clear,0,2013-06-28 02:15:00
10:35 PM,75.2,73.4,94,29.78,10.0,North,-9999.0,-,N/A,Rain-Thunderstorm,Light Rain,0,2013-06-28 02:35:00
10:55 PM,75.2,73.4,94,29.81,10.0,North,-9999.0,-,N/A,Rain,Light Rain,0,2013-06-28 02:55:00
11:15 PM,75.2,73.4,94,29.80,10.0,North,-9999.0,-,N/A,,Mostly Cloudy,0,2013-06-28 03:15:00
11:35 PM,75.2,73.4,94,29.79,10.0,North,-9999.0,-,N/A,Rain-Thunderstorm,Light Rain,0,2013-06-28 03:35:00
11:55 PM,73.4,73.4,100,29.82,1.8,North,-9999.0,-,0.20,Rain-Thunderstorm,Heavy Thunderstorms and Rain,0,2013-06-28 03:55:00